{"data":{"norad_id":59237,"intl_designator":"2024-049G","name":"STARLINK-31505","alt_names":[],"object_type":"PAYLOAD","status":"ACTIVE","operator":null,"country":"US","launch_date":"2024-03-16","launch_site_code":"AFETR","launch_vehicle":null,"mission":null,"orbit_class":"UNKNOWN","rcs_meters":null,"size_class":null,"mass_kg":null,"dimensions":null,"purposes":["comms"],"wikipedia_slug":null,"has_3d_model":false,"image_url":null,"decayed_at":null,"tle_current":{"epoch":"2026-09-20T00:08:50.405280Z","epoch_age_seconds":201477,"freshness":"STALE","line1":"1 59237U 24049G   26263.00613895  .00000441  00000+0  25565-4 0  9991","line2":"2 59237  43.0055 126.2050 0001724 271.4540  88.6114 15.27578671142125","mean_motion":15.27578671,"eccentricity":0.0001724,"inclination_deg":43.0055,"raan_deg":126.205,"arg_perigee_deg":271.454,"mean_anomaly_deg":88.6114,"bstar":2.5565e-5,"rev_number":14212,"period_min":94.266830726128,"perigee_km":481.87020637762,"apogee_km":484.23594471567,"semimajor_km":6861.1900755466,"source":"CELESTRAK","updated_at":"2026-09-21T09:00:34.075289Z"}}}